Vorticity
nan nan nan nan nan nan nan nan nan nan nan nan nan nan nan nan nan nan nan nan nan nan nan nan nan nan nan nan nan nan nan nan nan nan nan nan nan nan nan nan nan nan nan nan nan nan nan nan nan
nan 5 5 7 8 7 7 5 7 8 10 10 2 5 5 5 7 11 10 13 11 6 6 4 5 7 6 4 4 5 5 4 4 4 4 5 5 5 5 5 5 5 4 4 4 4 4 4 nan
nan 6 8 6 8 6 5 5 6 14 10 2 1 5 8 7 10 5 10 15 8 5 5 6 6 7 6 4 5 4 4 4 5 5 5 5 5 5 4 4 5 6 5 4 4 4 4 4 nan
nan 7 7 7 6 4 4 5 7 8 6 8 5 7 4 9 12 14 15 9 7 5 5 4 6 7 7 5 5 4 4 5 5 5 6 5 4 4 3 4 6 6 5 5 4 4 4 4 nan
nan 7 6 7 5 7 6 6 10 6 6 7 6 4 5 8 13 15 9 7 5 4 7 5 5 7 6 5 5 5 4 5 5 5 5 5 5 4 4 4 5 5 5 4 4 4 4 5 nan
nan 7 7 5 6 6 10 9 11 7 5 5 9 7 6 7 12 10 7 7 6 6 7 7 5 6 6 5 5 5 5 5 5 5 5 6 5 5 5 5 5 5 5 4 4 4 5 5 nan
nan 8 7 4 6 8 5 10 14 10 6 7 5 2 6 9 12 10 7 7 6 6 7 8 6 3 4 6 6 5 5 5 5 5 5 6 6 5 5 5 5 5 5 5 4 4 5 4 nan
nan 7 7 5 7 4 3 9 14 11 8 5 5 6 8 17 12 7 7 6 6 6 7 7 7 6 5 3 5 6 6 5 6 5 5 6 5 6 6 5 5 4 4 5 5 4 4 5 nan
nan 5 7 8 4 2 4 11 9 11 11 4 6 7 17 18 6 4 4 5 5 7 7 6 6 6 6 6 5 5 6 5 5 5 5 5 6 7 4 5 6 5 5 5 4 5 5 5 nan
nan 7 7 6 4 5 7 5 7 14 7 7 3 8 15 9 5 4 3 3 5 7 6 5 6 5 4 6 8 6 5 5 6 6 5 4 7 6 6 7 7 7 6 6 6 6 6 6 nan
nan 6 6 7 6 3 4 7 13 11 5 8 8 9 7 6 5 5 5 5 6 5 7 7 5 6 5 4 4 6 7 8 10 8 5 6 6 7 6 7 8 8 7 7 8 7 7 7 nan
nan 8 6 5 4 3 6 6 10 7 2 8 19 15 9 7 5 6 6 6 6 5 6 7 5 5 5 4 7 6 6 6 7 10 7 4 6 7 6 7 8 7 8 7 7 7 8 7 nan
nan 7 6 4 5 7 8 8 9 7 8 9 16 11 7 5 5 5 6 8 8 7 6 7 5 5 7 4 4 7 7 7 7 8 7 5 6 7 6 7 7 7 7 7 7 7 7 7 nan
nan 5 6 9 10 8 9 8 8 9 10 9 7 7 8 8 7 6 7 6 5 8 8 6 6 6 5 6 4 5 7 7 7 7 8 6 4 6 6 7 7 6 6 7 7 7 7 9 nan
nan 8 13 11 9 12 9 4 6 6 6 7 8 10 9 9 9 6 6 5 6 7 8 9 7 6 6 6 5 5 6 7 7 8 9 7 5 5 5 6 7 7 8 7 7 7 8 8 nan
nan 8 7 9 10 12 9 5 10 10 5 5 8 10 11 12 8 7 7 8 7 9 9 7 8 8 6 5 6 6 7 7 7 8 10 9 6 5 5 6 7 7 7 8 8 8 7 8 nan
nan 10 6 4 9 11 7 9 4 -0 3 3 3 6 9 10 10 12 10 10 8 9 8 8 9 8 8 7 6 8 7 7 8 8 9 10 8 6 5 6 7 7 7 8 8 8 9 7 nan
nan 7 5 7 4 6 7 1 -2 -1 5 6 6 6 6 8 9 12 14 12 11 11 11 8 8 9 8 7 8 8 8 8 8 7 8 8 9 9 5 6 7 7 6 7 8 8 7 9 nan
nan 4 3 7 3 6 9 4 5 3 6 9 11 11 8 8 7 10 13 15 15 13 12 8 6 7 6 7 7 7 8 7 8 10 10 8 8 9 5 6 8 7 8 8 7 9 6 7 nan
nan 4 7 4 10 5 2 9 14 18 9 10 11 11 10 8 10 10 14 16 17 15 12 10 8 7 3 4 6 8 9 9 10 9 11 10 8 7 7 7 9 7 7 10 9 5 4 9 nan
nan 10 7 5 6 7 10 11 10 14 10 13 12 9 11 9 9 10 10 14 17 18 18 15 11 8 8 5 5 5 7 9 10 8 10 12 10 7 7 6 7 9 8 9 10 9 4 5 nan
nan 16 12 12 8 7 9 13 12 9 7 4 9 13 8 11 13 10 8 10 11 15 19 19 17 12 11 10 7 6 3 6 7 9 8 12 12 9 8 8 8 7 8 9 8 9 6 6 nan
nan 15 17 10 5 9 8 8 6 8 5 12 14 9 9 10 8 8 10 9 9 10 12 15 19 19 12 10 6 6 4 4 8 10 11 10 12 13 9 9 8 6 7 11 10 7 6 5 nan
nan 9 9 9 10 11 12 3 1 8 12 14 10 5 7 8 8 8 8 9 10 9 8 8 12 18 18 12 9 6 5 4 4 6 8 9 10 15 14 9 8 8 8 10 10 9 8 4 nan
nan 6 8 8 7 13 16 4 11 7 15 17 9 4 8 9 6 4 6 10 10 9 11 8 7 10 17 17 11 10 8 9 7 5 7 8 7 10 15 11 7 8 11 9 10 9 10 8 nan
nan 7 7 9 8 9 10 6 6 4 10 8 4 4 2 6 7 6 8 8 7 10 12 10 8 9 10 15 15 12 10 8 11 9 7 9 8 10 13 12 10 11 11 7 7 9 12 12 nan
nan 11 9 11 8 10 9 6 6 3 2 5 4 3 3 4 7 8 9 10 7 7 11 12 11 11 12 10 12 14 14 9 8 9 6 7 9 11 15 13 11 12 11 10 6 9 10 8 nan
nan 11 9 10 11 9 9 13 15 14 9 2 2 3 3 4 6 10 10 10 10 8 9 11 12 12 14 14 11 11 13 14 12 12 11 8 10 13 14 13 10 10 10 9 6 8 11 10 nan
nan 9 9 10 10 8 10 9 19 12 -4 -2 3 4 3 5 8 9 8 9 9 9 9 9 9 10 12 14 15 14 15 16 16 12 12 12 12 15 14 10 10 10 9 9 9 11 11 9 nan
nan nan nan nan nan nan nan nan nan nan nan nan nan nan nan nan nan nan nan nan nan nan nan nan nan nan nan nan nan nan nan nan nan nan nan nan nan nan nan nan nan nan nan nan nan nan nan nan nan
CAPE
0 0 0 0 0 0 0 0 0 0 0 0 0 0 1 12 27 61 110 290 398 936 1257 899 894 865 994 1165 1371 1602 1715 1717 1552 1467 1562 1512 1488 1365 1375 1468 1254 1036 579 458 269 127 65 46 98
0 0 0 0 0 0 0 0 0 0 0 0 4 9 15 49 157 281 234 436 593 1150 1198 783 799 792 1025 1137 1343 1522 1600 1549 1577 1552 1467 1457 1291 1146 1067 1264 1284 1079 618 505 215 78 58 86 121
0 0 0 0 0 0 0 0 0 0 0 0 25 41 27 32 250 269 260 578 773 1043 1040 840 703 728 945 1161 1320 1424 1502 1482 1468 1445 1414 1323 1170 1019 994 1255 1303 1260 756 591 184 67 64 83 92
0 0 0 0 0 0 0 0 0 2 30 103 91 136 103 131 230 241 635 725 784 975 1010 657 577 671 869 1148 1307 1385 1358 1281 1215 1195 1305 1269 1070 1009 988 1220 1262 1197 785 442 99 64 40 64 62
0 0 0 0 0 0 0 0 0 0 52 290 150 207 162 225 349 681 770 770 797 843 789 818 489 642 842 1092 1254 1185 1135 1062 1027 1100 1172 1241 1197 1116 1117 1095 1053 947 636 226 112 73 50 70 44
0 0 0 0 0 0 0 0 0 0 113 432 470 186 137 257 527 736 765 792 828 825 560 819 496 654 774 891 938 849 844 812 838 976 1060 1194 1179 1064 997 958 865 781 621 378 159 111 83 66 62
0 0 0 0 0 0 0 0 0 0 69 632 509 336 242 323 416 703 760 765 761 530 384 865 581 746 731 707 555 501 559 584 623 739 816 891 799 763 926 952 862 682 438 275 133 51 18 10 1
0 0 0 0 0 0 0 0 0 2 16 534 357 236 428 336 458 551 716 684 580 340 427 861 711 728 879 901 288 239 322 371 411 490 579 498 353 430 540 565 763 644 413 250 143 41 0 0 0
0 0 0 0 0 0 0 0 0 8 585 659 546 500 238 259 306 516 552 367 413 218 371 633 751 638 821 816 627 163 165 224 250 321 373 278 193 358 463 339 467 566 449 265 181 64 0 0 0
0 0 0 0 0 0 0 0 0 197 555 660 706 223 128 178 353 537 535 410 364 282 386 499 781 645 583 364 640 590 338 284 319 296 411 330 297 276 160 155 160 355 244 194 112 23 0 12 258
0 0 0 0 0 0 0 0 0 106 426 208 753 470 197 237 325 427 376 357 329 402 435 418 435 597 470 287 461 456 354 347 358 373 343 321 187 194 131 107 45 43 59 16 0 1 14 96 244
0 0 0 0 0 0 0 0 0 0 0 0 8 441 285 229 245 292 250 205 286 430 404 360 347 371 396 296 239 277 239 252 204 194 330 273 198 98 54 0 0 22 19 111 3 0 18 86 300
0 0 0 0 0 0 0 0 0 0 0 0 188 234 341 337 259 207 142 84 127 302 435 391 257 250 262 378 192 192 152 106 86 137 208 142 94 51 21 22 0 0 60 214 88 3 0 70 367
0 0 0 0 0 0 0 0 0 0 0 0 236 425 356 345 295 237 201 139 102 109 288 413 267 237 309 403 299 236 134 63 87 88 140 228 125 97 16 69 52 49 109 264 235 99 204 596 736
0 0 0 0 0 0 0 0 0 0 0 0 152 310 439 458 302 402 489 378 302 193 103 261 360 306 454 415 367 251 103 56 52 61 132 179 214 164 74 104 207 385 394 389 309 159 656 381 10
0 0 0 0 0 0 0 0 0 0 0 0 0 2 417 526 717 701 590 639 617 436 267 103 162 360 405 415 342 203 118 75 54 63 89 172 225 214 167 128 130 419 632 510 332 314 298 0 0
0 0 0 0 0 0 0 0 0 0 0 0 0 0 0 65 616 705 884 1015 971 871 639 355 160 247 380 392 324 280 165 104 75 60 88 137 209 228 252 206 213 408 672 664 504 404 21 0 0
0 0 0 0 0 0 0 0 0 0 0 0 0 0 0 0 0 8 634 1021 1141 1522 1072 809 397 310 217 326 265 184 146 117 108 98 83 135 221 224 288 298 363 448 646 967 727 229 0 0 0
0 0 0 0 0 0 0 0 0 0 0 0 0 0 0 0 0 0 0 455 924 1229 1346 1315 743 642 311 305 309 312 298 161 145 147 201 221 193 307 526 398 467 721 890 1220 722 101 0 0 0
0 0 0 0 0 0 0 0 0 0 0 0 0 0 0 0 0 0 0 0 26 1161 1348 1666 1440 1011 509 390 346 324 327 327 217 248 269 206 293 454 472 636 635 669 817 1053 366 0 0 0 0
0 0 0 0 0 0 0 0 0 0 0 0 0 0 0 0 0 0 0 0 0 0 989 1282 1648 1638 1290 790 440 369 411 377 376 415 364 367 364 483 660 727 878 993 1117 650 102 0 0 0 0
0 0 0 0 0 0 0 0 0 0 0 0 0 0 0 0 0 0 0 0 0 0 0 607 1184 1506 1699 1469 1087 933 929 961 866 872 680 618 571 498 702 880 972 1145 991 905 63 0 0 0 0
0 0 0 0 0 0 0 0 0 0 0 0 0 0 0 0 0 0 0 0 0 0 0 0 8 1024 1749 1742 1513 1481 1252 1383 1456 1190 1069 943 600 659 762 983 1166 1096 858 650 49 0 0 0 0
0 0 0 0 0 0 0 0 0 0 0 0 0 0 0 0 0 0 0 0 0 0 0 0 0 0 705 1798 1778 1763 1602 1552 1644 1657 1397 1240 712 427 660 888 1132 1021 728 228 5 0 0 0 0
0 0 0 0 0 0 0 0 0 0 0 0 0 0 0 0 0 0 0 0 0 0 0 0 0 0 7 918 1708 1930 1915 1787 1652 1839 1676 1495 1056 654 454 614 841 770 393 73 0 0 0 0 0
0 0 0 0 0 0 0 0 0 0 0 0 0 0 0 0 0 0 0 0 0 0 0 0 0 0 0 76 887 1727 1964 1896 1704 1801 1887 1551 1544 1120 633 475 636 462 14 2 0 0 0 0 0
0 0 0 0 0 0 0 0 0 0 0 0 0 0 0 0 0 0 0 0 0 0 0 0 0 0 0 0 14 416 1087 1662 1618 1665 1738 1619 1563 1202 535 402 249 11 2 1 0 0 0 0 0
0 0 0 0 0 0 0 0 0 0 0 0 0 0 0 0 0 0 0 0 0 0 0 0 0 0 0 0 0 0 77 650 1312 1585 1717 1744 1139 906 285 175 63 2 3 1 2 0 0 0 0
0 0 0 0 4 11 0 0 0 0 0 0 0 0 0 0 0 0 0 0 0 0 0 0 0 0 0 1 220 346 3 18 862 1256 1507 1615 1063 440 0 62 2 1 1 5 4 2 0 0 0
0 0 0 0 0 0 1 1 0 0 0 0 0 0 0 0 0 0 0 0 0 0 0 0 0 0 0 0 152 1108 604 250 916 990 1140 1214 722 0 0 0 1 1 1 1 0 0 0 0 0